Regional Weather Roundup
Issued by NWS

Home | Current Version | Previous Version | Graphics & Text | Print | Product List | Glossary On
Versions: 1 2 3 4 5 6 7 8 9 10 11 12 13 14 15 16 17 18 19 20 21 22 23 24 25 26 27 28 29 30 31 32 33 34 35 36 37 38 39 40 41 42 43 44 45 46 47 48 49 50
000
ASUS43 KDTX 191510
RWRMI
MICHIGAN HOURLY REGIONAL WEATHER ROUNDUP
NATIONAL WEATHER SERVICE DETROIT/PONTIAC MI
1100 AM EDT THU APR 19 2018

NOTE: "FAIR" INDICATES FEW OR NO CLOUDS BELOW 12,000 FEET WITH NO
SIGNIFICANT WEATHER AND/OR OBSTRUCTION TO VISIBILITY.

MIZ047>049-052>055-059>063-066>070-074>076-081>083-191600-
SOUTHEAST LOWER MICHIGAN

CITY           SKY/WX    TMP DP  RH WIND       PRES   REMARKS
ADRIAN         FAIR      41  26  55 N16G23    30.13R
ALMA           FAIR      40  28  60 NW9G16    30.15R WCI  34
ANN ARBOR      FAIR      42  25  50 NW17      30.11R
BAD AXE        CLOUDY    36  23  60 N18G26    30.11R WCI  25
CARO           FAIR      38  24  56 N12G20    30.11R WCI  30
DETROIT CITY   FAIR      36  25  64 NW9G16    30.09R WCI  29
DETROIT        FAIR      43  24  47 W15       30.10R
FLINT          FAIR      40  25  55 NW17      30.12R WCI  31
GROSSE ILE     FAIR      42  26  51 NW15      30.09R
HILLSDALE      FAIR      39  28  65 NW17      30.13R WCI  30
HOWELL         FAIR      39  26  58 NW14G21   30.12R WCI  31

CITY           SKY/WX    TMP DP  RH WIND       PRES   REMARKS
JACKSON        FAIR      40  25  55 NW12      30.14R WCI  33
LAMBERTVILLE   FAIR      44  30  57 NW10      30.12R
LANSING        FAIR      40  28  62 N13       30.16R WCI  32
LAPEER         FAIR      38  24  55 N14G20    30.10R WCI  30
MASON          FAIR      41  22  47 NW14      30.14R
MONROE         FAIR      41  26  53 NW14G21   30.10R
MT. CLEMENS    PTSUNNY   40  29  67 N15       30.08R WCI  31
PONTIAC        FAIR      40  24  53 N14G20    30.08R WCI  32
PORT HOPE        N/A     33  25  72 N12G22    30.09R WCI  24
PORT HURON     CLOUDY    36  23  60 N10G21    30.09R WCI  28
TRI CITIES     FAIR      41  25  53 NW18      30.13R
MIDLAND        FAIR      40  26  57 NW17G23   30.13R WCI  31
TROY           FAIR      41  23  48 NW10G18   30.10R
SAGINAW HB     FAIR      41  27  56 NW12      30.12R
$$
MIZ043>046-050>051-056>058-064>065-071>073-077>080-191600-
SOUTHWEST LOWER MICHIGAN

CITY           SKY/WX    TMP DP  RH WIND       PRES   REMARKS
BATTLE CREEK   FAIR      42  27  55 NW12      30.18R
BENTON HARBOR  FAIR      41  29  62 VRB7      30.25R
BIG RAPIDS     FAIR      39  15  37 N14G24    30.17R WCI  31
COLDWATER      FAIR      42  29  61 NW13      30.17R
FREMONT        FAIR      39  18  43 N9        30.20S WCI  32
HOLLAND        FAIR      42  29  59 NW8       30.23R
GRAND RAPIDS   FAIR      40  29  64 N13       30.18R WCI  32
IONIA          FAIR      39  27  61 NW7       30.16R WCI  34
KALAMAZOO      FAIR      44  29  55 NW13      30.19R
LUDINGTON      FAIR      38  28  66 N14G21    30.24R WCI  29
MARSHALL       FAIR      40  24  52 NW7       30.16R
MOUNT PLEASANT FAIR      42  24  50 NW14G21   30.14R
MUSKEGON       FAIR      39  26  59 N12       30.22R WCI  32
SOUTH HAVEN    FAIR      41  27  57 N12G20    30.24R
$$
MIZ016>042-191600-
NORTHERN LOWER MICHIGAN

CITY           SKY/WX    TMP DP  RH WIND       PRES   REMARKS
ALPENA         FAIR      33  21  61 NW16G25   30.14R WCI  23
BEAVER ISLAND  FAIR      36  27  69 NW10G22   30.23R WCI  28
BELLAIRE       FAIR      35  23  61 NW12G23   30.22R WCI  27
CADILLAC       FAIR      36  21  55 N18       30.16R WCI  25
CHARLEVOIX     FAIR      34  26  74 N14G23    30.25R WCI  24
FRANKFORT      FAIR      37  28  69 N8G18     30.26R WCI  31
GAYLORD        FAIR      34  22  61 N8G17     30.14R WCI  27
GRAYLING       FAIR      34  23  64 NW18G26   30.14R WCI  23
HARBOR SPRINGS FAIR      35  21  57 N14G20    30.20R WCI  25
HOUGHTON LAKE  FAIR      36  20  52 N14G26    30.14R WCI  27
MANISTEE       FAIR      37  27  67 NW16G22   30.25R WCI  28
OSCODA         FAIR      36  20  53 N12       30.11R WCI  27
PELLSTON       FAIR      35  22  58 NW13G25   30.21R WCI  26
ROGERS CITY    FAIR      32  21  63 NW15G25   30.17R WCI  22
TRAVERSE CITY  FAIR      36  26  67 N15       30.23R WCI  27
$$
MIZ007>008-015-191600-
EASTERN UPPER MICHIGAN

CITY           SKY/WX    TMP DP  RH WIND       PRES   REMARKS
KINROSS        FAIR      31  22  69 NW13G22   30.19R WCI  21
MACKINAC ISLAN FAIR      36  20  53 N13G22    30.19R WCI  27
NEWBERRY       FAIR      33  22  64 NW12G21   30.23R WCI  24
S. S. MARIE    FAIR      35  20  54 NW10      30.18R WCI  27
MUNISING         N/A     33  27  78 N15       30.31R WCI  23
$$
MIZ004>006-011>014-085-191600-
CENTRAL UPPER MICHIGAN

CITY           SKY/WX    TMP DP  RH WIND       PRES   REMARKS
MANISTIQUE     FAIR      36  23  58 N17G25    30.25R WCI  26
ESCANABA       FAIR      41  18  39 N12G23    30.28R
MENOMINEE      FAIR      42  17  36 N13G21    30.29R
SAWYER-GWINN   SUNNY     36  16  44 N12G20    30.29R WCI  27
$$
MIZ001>003-009>011-084-191600-
WESTERN UPPER MICHIGAN

CITY           SKY/WX    TMP DP  RH WIND       PRES   REMARKS
IRON MOUNTAIN  FAIR      42  16  34 N14       30.28R
HOUGHTON       FAIR      36  21  54 NW9       30.33R WCI  29
COPPER HARBOR    N/A     35  25  66 N10       30.34R WCI  27
IRONWOOD       FAIR      41  18  39 N5        30.38R
$$

ABBREVIATIONS USED IN REMARKS
   TC - TEMPERATURE IN CELSIUS
  WCI - WIND CHILL INDEX
   HX - HEAT INDEX
  VSB - VISIBILITY





USA.gov is the U.S. government's official web portal to all federal, state and local government web resources and services.